Weather History for KHSP - July, 2013

Change the Weather History Date:

Wednesday, July 17, 2013

  Actual Average (KLWB) Record (KLWB)
Temperature  
Mean Temperature 70 °F 71 °F  
Max Temperature 75 °F 82 °F 92 °F (1988)
Min Temperature 66 °F 59 °F 46 °F (2004)
Degree Days  
Heating Degree Days 0    
Month to date heating degree days  
Since 1 June heating degree days  
Since 1 July heating degree days  
Cooling Degree Days 6    
Month to date cooling degree days  
Year to date cooling degree days  
Since 1 June cooling degree days  
Growing Degree Days 20 (Base 50)    
Moisture  
Dew Point 67 °F    
Average Humidity 86    
Maximum Humidity 100    
Minimum Humidity 78    
Precipitation  
Precipitation 0.00 in 0.13 in 0.84 in (1956)
Month to date precipitation 2.13  
Year to date precipitation 23.04  
Snow  
Snow 0.00 in - - ()
Month to date snowfall  
Since 1 June snowfall  
Since 1 July snowfall  
Snow Depth -    
Sea Level Pressure  
Sea Level Pressure 30.45 in    
Wind  
Wind Speed 6 mph (NNW)    
Max Wind Speed 9 mph    
Max Gust Speed 23 mph    
Visibility 10 miles    
Events Thunderstorm    
T = Trace of Precipitation, MM = Missing Value Source: NWS Daily Summary

Daily Weather History Graph

Daily Weather History Graph

Search for Another Location

Airport or City:

Trip Planner

Search our weather history database for the weather conditions in past years. The results will help you decide how hot, cold, wet, or windy it might be!

Date:

Astronomy

Jul. 17, 2013 Rise Set
Actual Time 6:10 AM EDT 8:40 PM EDT
Civil Twilight 5:40 AM EDT 9:10 PM EDT
Nautical Twilight 5:02 AM EDT 9:47 PM EDT
Astronomical Twilight 4:20 AM EDT 10:29 PM EDT
Moon 3:28 PM EDT (7/17) 1:14 AM EDT (7/17)
Length of Visible Light 15h 30m
Length of Day
14h 29m
Waxing Gibbous, 67% of the Moon is Illuminated
Jul 17
Waxing Gibbous
Jul 22
Full
Jul 29
Last Quarter
Aug 6
New
Aug 14
First Quarter

Hourly Weather History & Observations

Time (EDT) Temp. Dew Point Humidity Pressure Visibility Wind Dir Wind Speed Gust Speed Precip Events Conditions
12:15 AM 68.0 °F 64.4 °F 88% 30.49 in 10.0 mi NW 8.1 mph - N/A   Clear
12:35 AM 68.0 °F 64.4 °F 88% 30.49 in 10.0 mi NNW 9.2 mph - N/A   Clear
12:55 AM 68.0 °F 64.4 °F 88% 30.48 in 10.0 mi NW 8.1 mph - N/A   Clear
1:15 AM 69.8 °F 64.4 °F 83% 30.48 in 10.0 mi NW 5.8 mph - N/A   Scattered Clouds
1:35 AM 69.8 °F 64.4 °F 83% 30.47 in 10.0 mi NNW 8.1 mph - N/A   Clear
2:15 AM 68.0 °F 64.4 °F 88% 30.46 in 10.0 mi NNW 8.1 mph - N/A   Clear
2:35 AM 69.8 °F 64.4 °F 83% 30.46 in 10.0 mi NNW 6.9 mph - N/A   Clear
2:55 AM 69.8 °F 64.4 °F 83% 30.46 in 10.0 mi NW 5.8 mph - N/A   Clear
3:15 AM 69.8 °F 64.4 °F 83% 30.46 in 10.0 mi NNW 5.8 mph - N/A   Clear
3:35 AM 69.8 °F 64.4 °F 83% 30.46 in 10.0 mi NNW 5.8 mph - N/A   Clear
3:55 AM 69.8 °F 64.4 °F 83% 30.47 in 10.0 mi NNW 6.9 mph - N/A   Clear
4:15 AM 69.8 °F 64.4 °F 83% 30.47 in 10.0 mi North 8.1 mph - N/A   Clear
4:35 AM 69.8 °F 64.4 °F 83% 30.47 in 10.0 mi North 8.1 mph - N/A   Scattered Clouds
4:55 AM 69.8 °F 64.4 °F 83% 30.47 in 10.0 mi North 6.9 mph - N/A   Scattered Clouds
5:15 AM 69.8 °F 64.4 °F 83% 30.47 in 10.0 mi North 5.8 mph - N/A   Scattered Clouds
5:35 AM 68.0 °F 64.4 °F 88% 30.47 in 10.0 mi NNW 6.9 mph - N/A   Clear
5:55 AM 66.2 °F 64.4 °F 94% 30.48 in 10.0 mi NNW 5.8 mph - N/A   Clear
6:15 AM 69.8 °F 62.6 °F 78% 30.47 in 10.0 mi North 9.2 mph - N/A   Clear
6:35 AM 69.8 °F 62.6 °F 78% 30.48 in 10.0 mi NNW 8.1 mph - N/A   Clear
6:55 AM 69.8 °F 62.6 °F 78% 30.48 in 10.0 mi North 9.2 mph - N/A   Clear
7:15 AM 69.8 °F 64.4 °F 83% 30.48 in 10.0 mi North 6.9 mph - N/A   Clear
7:35 AM 71.6 °F 64.4 °F 78% 30.48 in 10.0 mi North 5.8 mph - N/A   Clear
7:55 AM 69.8 °F 64.4 °F 83% 30.48 in 10.0 mi NNW 5.8 mph - N/A   Clear
8:15 AM 71.6 °F 64.4 °F 78% 30.48 in 10.0 mi North 9.2 mph - N/A   Clear
8:35 AM 71.6 °F 64.4 °F 78% 30.49 in 10.0 mi North 8.1 mph - N/A   Clear
8:55 AM 71.6 °F 66.2 °F 83% 30.49 in 10.0 mi North 5.8 mph - N/A   Clear
9:15 AM 73.4 °F 66.2 °F 78% 30.49 in 10.0 mi North 6.9 mph - N/A   Clear
9:35 AM 73.4 °F 66.2 °F 78% 30.49 in 10.0 mi North 5.8 mph - N/A   Clear
9:55 AM 71.6 °F 66.2 °F 83% 30.48 in 10.0 mi North 4.6 mph - N/A   Clear
10:15 AM 73.4 °F 66.2 °F 78% 30.49 in 10.0 mi NW 5.8 mph - N/A   Clear
10:35 AM 73.4 °F 68.0 °F 83% 30.48 in 10.0 mi NW 5.8 mph - N/A   Clear
10:55 AM 73.4 °F 68.0 °F 83% 30.49 in 10.0 mi Calm Calm - N/A   Clear
11:15 AM 75.2 °F 69.8 °F 83% 30.49 in 10.0 mi North 3.5 mph - N/A   Clear
11:35 AM 73.4 °F 68.0 °F 83% 30.49 in 10.0 mi NNW 5.8 mph - N/A   Scattered Clouds
11:55 AM 73.4 °F 68.0 °F 83% 30.49 in 10.0 mi NW 4.6 mph - N/A   Scattered Clouds
12:15 PM 75.2 °F 68.0 °F 78% 30.48 in 10.0 mi NNW 6.9 mph - N/A   Mostly Cloudy
12:35 PM 75.2 °F 69.8 °F 83% 30.48 in 10.0 mi NW 6.9 mph - N/A   Mostly Cloudy
12:55 PM 75.2 °F 69.8 °F 83% 30.48 in 10.0 mi NW 5.8 mph - N/A   Mostly Cloudy
1:15 PM 75.2 °F 68.0 °F 78% 30.47 in 10.0 mi Calm Calm - N/A Thunderstorm Mostly Cloudy
1:35 PM 75.2 °F 69.8 °F 83% 30.47 in 10.0 mi North 4.6 mph - N/A Thunderstorm Thunderstorm
1:55 PM 68.0 °F 62.6 °F 83% 30.46 in - North - - N/A   Unknown
2:15 PM - - N/A% 30.46 in - North - - N/A   Unknown
2:35 PM - - N/A% 30.45 in - North - - N/A   Unknown
2:55 PM - - N/A% 30.45 in - North - - N/A   Unknown
3:15 PM - - N/A% 30.44 in - North - - N/A   Unknown
3:35 PM 73.4 °F 69.8 °F 88% 30.43 in - NE 3.5 mph 23.0 mph N/A   Unknown
3:55 PM 73.4 °F 69.8 °F 88% 30.42 in 10.0 mi Calm Calm - N/A   Scattered Clouds
4:15 PM 73.4 °F 69.8 °F 88% 30.42 in 10.0 mi Calm Calm - N/A   Clear
4:35 PM 73.4 °F 69.8 °F 88% 30.42 in 10.0 mi Calm Calm - N/A   Clear
4:55 PM 73.4 °F 69.8 °F 88% 30.42 in 10.0 mi Calm Calm - N/A   Clear
5:15 PM 73.4 °F 69.8 °F 88% 30.41 in 10.0 mi Calm Calm - N/A   Clear
5:35 PM 73.4 °F 71.6 °F 94% 30.40 in 10.0 mi Calm Calm - N/A   Clear
5:55 PM 73.4 °F 69.8 °F 88% 30.39 in 10.0 mi Calm Calm - N/A Thunderstorm Scattered Clouds
6:15 PM 73.4 °F 69.8 °F 88% 30.39 in 10.0 mi ESE 4.6 mph - N/A   Scattered Clouds
6:35 PM 73.4 °F 69.8 °F 88% 30.41 in 10.0 mi ESE 4.6 mph - N/A   Clear
6:55 PM 73.4 °F 69.8 °F 88% 30.41 in 10.0 mi SE 3.5 mph - N/A   Scattered Clouds
7:15 PM 73.4 °F 69.8 °F 88% 30.41 in 7.0 mi SE 3.5 mph - N/A   Scattered Clouds
7:35 PM 71.6 °F 68.0 °F 88% 30.40 in 7.0 mi SE 3.5 mph - N/A Thunderstorm Scattered Clouds
7:55 PM 71.6 °F 68.0 °F 88% 30.40 in 7.0 mi Calm Calm - N/A Thunderstorm Thunderstorm
8:15 PM 71.6 °F 68.0 °F 88% 30.41 in 10.0 mi Calm Calm - N/A Thunderstorm Thunderstorm
8:35 PM 69.8 °F 68.0 °F 94% 30.41 in 7.0 mi Calm Calm - N/A Thunderstorm Clear
8:55 PM 71.6 °F 68.0 °F 88% 30.40 in 7.0 mi SSE 3.5 mph - N/A Thunderstorm Clear
9:15 PM 69.8 °F 68.0 °F 94% 30.40 in 7.0 mi Calm Calm - N/A Thunderstorm Clear
9:35 PM 69.8 °F 68.0 °F 94% 30.41 in 7.0 mi West 5.8 mph - N/A   Clear
9:55 PM 69.8 °F 68.0 °F 94% 30.41 in 7.0 mi WNW 4.6 mph - N/A   Clear
10:15 PM 69.8 °F 68.0 °F 94% 30.42 in 7.0 mi WNW 4.6 mph - N/A   Clear
10:35 PM 69.8 °F 69.8 °F 100% 30.42 in 7.0 mi WNW 5.8 mph - N/A   Clear
10:55 PM 69.8 °F 69.8 °F 100% 30.42 in 7.0 mi WNW 5.8 mph - N/A   Clear
11:35 PM 69.8 °F 66.2 °F 88% 30.42 in 10.0 mi NW 5.8 mph - N/A   Scattered Clouds
11:55 PM 69.8 °F 66.2 °F 88% 30.42 in 10.0 mi WNW 4.6 mph - N/A   Clear